Location: Melizzano
(41.1500°N, 14.5000°E)
Time: 23:02:57
(UTC+00:00)

Terra - Pass Details

Date: 11 May 2021
Orbit: 701 x 703 km, 98.2° (Epoch: 24 June)

Event Time Altitude Azimuth Distance (km) Brightness Sun altitude
Exits shadow 21:32:47 43° 265° (W) 982 2.6 -27.5°
Drops below altitude 10° 21:37:13 10° 333° (NNW) 2,179 5.3 -27.8°
Sets 21:39:36 0° 341° (NNW) 3,102 6.4 -28.0°
